RH
100 100 100 100 100 100 100 100 100 100 100 99 99 98 96 95 93 92 91 90 86 81 76 73 72 72 73 74 73 72 72 71 71 72 72 73 73 73 73 73 73 73 72 72 71 71 70 70 70 69 69 69 69 70 70 71 72 73 74 75 76 77 78 78 78 78 77 77 76 75 75 73 72 71 71 71 70 70 70 70 70 71 71 72 74 74
100 100 100 100 100 100 100 100 100 100 99 99 98 97 95 94 92 91 90 87 82 77 73 72 72 73 74 74 74 73 73 72 72 72 72 72 72 71 71 72 72 72 72 72 71 71 70 70 69 69 69 69 70 70 70 70 71 72 72 73 74 74 74 75 75 75 75 75 75 74 73 72 72 71 71 71 71 71 71 71 71 70 70 70 70 70
100 100 100 100 100 100 100 99 99 99 99 98 97 95 93 93 92 91 87 82 78 74 72 73 74 75 75 76 76 75 75 74 74 73 72 72 71 70 70 69 69 69 69 68 68 67 66 66 65 65 65 65 65 64 65 65 65 66 67 67 67 68 68 68 69 70 70 71 70 69 68 68 68 68 68 68 68 68 69 70 70 70 69 70 70 71
100 100 100 100 99 99 99 99 98 98 98 97 95 93 92 93 92 89 84 78 75 73 73 74 75 76 76 77 77 77 76 76 75 74 73 72 71 70 68 67 66 65 64 63 61 60 59 58 57 56 56 55 54 53 53 53 54 54 54 55 55 55 56 57 58 59 59 60 60 59 58 58 58 59 59 60 61 62 64 65 66 67 67 68 69 71
99 100 100 99 99 99 98 97 97 96 97 96 95 93 93 93 90 86 80 76 74 73 74 75 76 77 77 77 78 78 77 76 76 75 73 72 70 68 66 64 61 59 57 54 52 50 48 46 44 43 41 40 39 39 38 38 38 38 38 38 38 39 39 40 41 42 42 43 42 42 42 42 43 44 45 47 49 51 54 57 59 61 62 64 65 66
98 99 99 99 99 98 97 96 96 96 96 96 95 94 94 92 88 82 77 75 74 74 75 76 77 78 78 78 78 78 77 76 75 74 72 70 67 65 61 58 54 50 46 43 40 37 34 31 28 26 25 24 23 23 22 22 22 22 21 21 22 22 23 23 23 24 24 24 24 24 24 25 26 27 29 31 33 36 40 43 47 49 52 54 55 56
98 98 98 98 98 97 97 96 95 96 96 96 95 95 94 90 85 80 76 75 75 75 76 77 78 79 79 79 79 78 77 75 73 70 68 64 61 57 52 48 43 38 34 31 27 24 20 17 14 12 11 11 11 11 11 11 11 10 10 10 10 11 11 11 11 11 11 11 11 11 12 12 13 14 15 17 19 21 24 27 30 33 36 39 41 42
96 96 96 97 97 97 97 96 96 96 97 96 95 95 93 88 83 79 76 76 77 78 78 79 79 78 78 78 77 75 73 70 66 62 58 54 49 45 40 35 31 27 23 20 16 13 10 8 7 6 6 6 6 6 6 6 5 5 5 6 6 6 7 7 7 7 7 7 7 7 7 7 8 8 8 9 10 11 13 15 17 19 21 23 25 27
92 93 94 95 96 97 97 97 96 97 97 96 96 95 92 85 80 77 76 77 79 80 80 80 78 76 74 72 70 67 64 59 54 49 45 41 36 33 28 25 21 18 15 13 10 9 7 6 5 5 5 5 5 5 5 5 5 5 5 5 5 5 5 5 5 5 5 5 5 6 6 6 6 6 6 6 7 7 8 9 10 11 12 13 14 16
90 91 94 95 96 97 97 97 96 96 96 96 95 93 88 83 78 75 74 76 76 77 78 76 74 71 68 63 59 54 49 44 39 35 32 29 26 24 21 19 16 14 12 10 9 8 7 7 6 6 6 6 6 6 6 6 6 6 5 5 5 5 4 4 4 4 4 4 4 4 4 4 5 5 5 5 5 5 6 6 7 7 8 9 10 10
90 92 94 95 96 96 96 97 96 96 96 95 94 91 86 81 77 74 74 74 73 72 72 70 67 63 58 51 45 39 34 30 27 24 23 21 20 18 17 15 14 12 11 10 9 9 8 8 8 8 8 8 8 8 7 7 6 5 4 4 4 4 3 3 3 3 3 3 3 3 3 3 3 3 4 4 4 4 4 5 5 6 6 7 8 8
89 92 94 94 95 95 95 95 95 95 96 94 90 85 78 75 73 73 72 73 72 70 67 62 58 52 46 38 32 27 23 21 20 19 18 17 16 14 13 12 11 10 9 9 9 10 10 11 11 11 10 10 9 8 7 5 5 4 4 3 3 3 3 3 3 3 3 3 3 3 3 3 3 3 3 3 3 3 3 3 3 4 4 5 6 7
88 90 92 92 93 93 94 94 94 94 94 90 85 79 75 71 71 72 73 72 70 67 63 56 48 40 34 29 25 21 18 17 17 17 16 15 13 12 11 10 9 9 9 9 10 11 13 13 13 12 11 10 8 7 5 4 4 4 4 3 3 3 3 3 3 3 3 3 3 3 3 3 3 3 3 3 3 3 3 3 3 3 3 3 4 5
86 86 88 89 90 91 92 93 94 93 90 85 81 78 76 75 75 75 74 71 66 60 54 46 38 32 26 23 20 18 17 16 15 15 14 13 12 11 10 10 9 9 10 11 12 14 15 15 14 12 10 8 7 5 4 4 4 4 4 4 4 4 4 4 4 4 4 4 4 4 4 4 4 3 3 3 3 3 3 3 3 3 3 3 3 4
81 82 83 84 86 87 88 90 92 91 89 85 83 81 80 80 79 76 72 65 58 50 43 36 30 26 24 21 19 18 17 16 16 16 15 14 13 13 12 11 11 11 12 13 14 15 15 14 12 11 8 7 6 5 4 4 4 5 5 5 5 5 5 4 4 4 4 4 4 4 4 4 4 4 4 4 4 4 4 3 3 3 3 3 3 3
78 78 79 80 83 84 85 85 86 86 86 85 84 84 83 80 76 70 62 54 46 39 33 28 26 25 24 22 21 20 18 18 18 18 17 16 15 14 13 13 13 13 14 15 15 15 14 12 10 9 7 6 5 5 5 5 5 6 6 6 5 5 5 4 4 4 4 4 4 4 4 4 4 4 4 4 4 4 4 4 4 3 3 3 3 3
76 77 77 79 81 82 80 81 81 81 81 82 81 80 77 72 66 58 48 40 34 29 24 23 23 24 23 22 22 22 21 20 19 19 18 17 16 16 15 14 14 14 14 15 15 14 12 10 9 7 6 5 5 5 5 6 6 6 6 6 5 5 5 5 5 5 5 5 5 5 6 5 5 6 6 5 5 5 5 5 4 4 4 4 5 5
73 73 74 75 76 76 75 74 73 72 73 72 70 67 61 56 48 40 33 27 24 22 20 20 20 21 19 19 18 18 18 17 17 17 16 15 16 16 15 14 13 13 13 13 12 11 10 9 7 7 6 6 6 6 6 6 6 6 6 5 5 5 5 5 6 6 7 7 7 7 7 7 7 7 7 7 7 7 7 7 7 7 7 7 8 9
68 68 68 68 67 67 65 62 59 57 55 53 51 47 43 36 30 25 21 20 19 20 20 21 20 19 18 18 16 14 13 12 12 12 13 13 14 15 14 13 12 11 11 11 10 9 8 8 7 7 6 6 6 6 6 6 6 6 6 6 6 6 6 7 8 8 9 9 9 9 9 9 9 9 9 9 9 9 9 10 10 10 11 11 12 13
59 58 56 55 53 51 49 45 41 39 36 34 31 28 25 21 19 18 18 18 18 18 18 19 19 18 17 15 13 11 9 8 8 9 10 11 12 13 12 10 10 10 10 9 9 9 8 8 8 8 7 7 7 7 7 6 6 6 6 6 7 7 8 9 10 10 11 11 12 12 12 12 11 11 11 11 11 11 12 12 13 14 15 16 16 16
47 44 40 37 34 32 30 26 24 23 21 19 18 18 16 16 16 16 17 18 18 18 17 17 17 15 13 11 9 8 7 7 7 8 8 9 10 11 10 8 8 9 9 9 9 10 10 10 9 9 8 8 7 7 7 7 7 7 7 8 8 9 10 11 12 13 14 14 14 14 14 14 14 14 14 13 13 14 14 15 16 16 17 18 19 20
32 28 24 21 19 17 15 15 15 14 13 14 14 14 14 14 15 16 17 17 17 16 15 14 13 11 10 10 8 6 6 5 5 6 7 8 9 9 10 8 9 10 11 11 12 12 12 11 11 10 9 8 8 8 8 8 8 8 9 10 10 12 13 14 15 15 16 16 16 17 17 17 17 16 16 16 16 16 16 17 18 18 19 20 21 22
17 15 12 11 10 10 10 11 11 11 11 12 12 13 13 14 14 14 14 13 12 11 10 9 8 7 7 6 5 5 4 4 4 4 6 6 8 9 10 10 11 12 13 14 15 14 13 12 11 10 9 9 9 9 9 10 10 10 11 12 13 14 15 16 17 17 18 18 18 18 18 18 18 18 18 18 18 18 18 18 19 20 21 22 23 24
7 6 6 6 6 7 8 9 9 10 10 10 10 11 12 12 12 12 12 10 9 8 8 7 6 5 5 5 4 4 4 4 4 4 5 6 7 9 11 11 12 14 16 17 17 16 15 14 12 11 10 10 11 11 11 11 12 13 14 15 16 17 18 18 19 19 19 20 20 20 20 20 20 20 20 20 20 20 20 20 21 21 21 22 23 24
3 3 3 4 5 7 8 9 9 9 9 9 8 8 9 8 7 7 6 5 5 6 6 5 5 5 5 5 4 4 5 5 5 5 6 7 8 10 11 12 13 14 16 16 17 16 16 14 13 12 12 12 13 13 13 14 15 16 17 18 19 19 20 20 21 21 21 21 21 21 21 21 21 21 21 21 21 21 22 22 22 23 23 23 24 24
3 4 4 5 6 8 9 9 9 9 9 8 8 7 6 5 4 4 4 5 6 6 6 6 5 4 4 4 4 4 5 6 6 6 7 9 10 11 12 12 12 13 14 15 16 16 16 15 14 13 13 14 15 15 16 17 18 19 20 21 21 22 22 22 23 23 23 23 23 23 22 22 22 22 22 22 22 22 23 23 23 24 24 24 24 25
4 4 5 6 6 7 8 8 9 8 8 8 7 7 6 5 7 8 9 8 7 6 6 6 5 4 4 5 4 4 5 6 6 7 7 9 10 10 11 11 11 11 12 13 15 16 16 16 15 15 15 16 17 17 18 20 21 22 23 23 24 24 24 24 25 25 25 24 24 24 24 24 23 23 23 23 23 24 24 24 24 24 25 25 25 25
4 4 5 5 6 6 7 7 7 7 7 7 7 6 5 6 9 11 10 9 7 6 5 5 4 4 5 5 5 5 5 6 6 6 6 8 9 9 9 9 9 9 10 12 14 16 17 17 17 16 16 17 18 19 21 23 24 25 26 26 26 26 26 26 26 26 26 26 26 26 25 25 25 25 25 25 25 25 25 25 25 25 25 25 25 25
4 4 5 5 5 6 5 5 6 6 6 6 6 6 5 5 8 10 9 7 6 6 6 5 4 4 5 5 6 6 7 6 6 6 6 7 8 8 8 8 8 8 9 11 14 17 19 18 18 18 17 18 20 22 24 26 27 27 27 27 27 27 27 27 27 27 27 27 27 27 27 27 27 27 27 27 27 27 27 27 27 27 26 26 26 26
5 5 5 5 5 5 5 5 5 5 5 5 5 5 5 4 5 7 7 6 6 5 6 5 5 5 5 6 7 7 7 7 7 7 6 7 8 8 9 9 9 10 11 14 17 19 20 20 19 19 19 20 22 25 27 28 29 29 29 28 28 28 28 28 29 29 29 29 29 29 29 29 29 29 29 29 29 30 30 29 29 29 28 28 28 28
7 6 5 5 5 5 5 5 5 5 5 5 5 4 4 4 4 4 4 5 5 5 6 6 6 6 6 7 8 8 7 8 8 9 7 9 10 10 10 11 11 12 14 16 19 21 20 20 20 21 21 23 25 27 29 30 31 31 30 29 29 29 29 29 29 30 30 31 31 31 31 31 31 32 32 32 32 32 32 32 32 31 31 30 30 30
7 6 5 4 4 5 5 5 5 5 5 5 5 5 5 5 4 4 4 4 5 6 7 7 8 8 8 8 8 9 7 8 9 10 8 10 11 11 11 12 12 13 15 16 18 19 20 19 21 24 25 26 28 30 32 33 32 32 31 30 30 29 29 30 30 31 32 32 33 33 33 33 34 34 34 34 35 35 35 35 34 34 34 33 33 33
6 5 4 4 4 4 4 5 5 5 6 6 7 7 7 7 6 6 6 6 7 7 9 9 9 10 9 9 9 9 9 8 8 9 8 9 9 10 10 10 11 11 12 13 15 16 18 18 20 23 26 28 30 32 34 34 33 32 31 31 31 30 30 31 31 32 33 34 35 35 35 35 35 36 36 36 37 37 37 37 37 37 37 36 36 36
6 6 5 5 5 5 5 5 6 6 7 7 8 9 9 9 9 9 9 9 9 9 9 10 11 11 11 11 10 10 10 10 10 10 8 8 8 8 8 8 9 9 10 10 11 13 14 15 17 20 23 26 28 31 33 33 33 32 32 32 32 32 32 32 33 34 35 36 36 37 37 37 37 38 38 39 39 39 39 40 40 40 40 39 39 39
7 7 7 7 8 8 8 8 9 9 8 8 9 10 11 11 11 11 11 11 11 11 10 10 11 11 12 12 12 11 10 11 12 11 10 9 9 8 7 7 7 7 8 9 10 10 11 13 15 17 18 20 23 26 29 31 32 32 33 33 34 34 34 34 34 35 37 38 38 39 39 39 39 40 40 41 41 41 42 42 42 42 42 42 42 42
8 8 8 9 9 10 10 11 11 11 11 10 10 10 11 12 12 12 13 13 13 13 12 12 11 11 11 12 12 12 11 12 12 12 10 9 9 8 8 7 7 8 8 9 10 10 10 12 13 14 15 16 19 22 26 29 31 33 34 35 35 35 35 35 35 37 39 40 40 41 41 41 41 41 42 42 43 43 43 43 44 44 44 44 43 43
10 10 10 10 10 11 11 12 12 12 12 12 11 11 12 12 12 13 13 13 13 13 13 13 12 11 11 11 11 12 12 12 11 11 10 10 9 9 9 8 8 8 9 10 10 10 11 12 12 13 14 15 16 18 22 27 31 34 36 37 37 36 35 35 36 38 40 41 42 42 42 42 42 43 43 43 43 44 44 45 45 45 45 45 45 45
12 12 11 11 11 12 12 12 13 13 13 12 11 11 12 13 13 13 14 14 14 14 14 14 13 13 12 11 11 11 11 11 11 11 11 11 10 10 10 9 9 9 9 9 10 10 11 12 12 12 13 14 15 18 20 25 30 34 38 39 39 38 36 36 37 39 41 42 43 43 43 43 43 43 43 43 44 44 45 45 45 45 45 45 45 46
13 13 13 12 12 12 12 13 13 13 13 13 13 13 14 14 14 14 14 14 14 14 14 14 14 14 13 12 11 11 10 11 11 12 12 12 11 11 11 10 9 9 9 9 9 10 10 11 11 12 12 13 15 17 20 24 29 34 38 40 40 40 38 37 38 39 41 43 44 44 44 44 44 43 43 44 44 44 45 45 45 45 45 45 45 45
14 14 14 13 14 14 14 14 14 14 14 14 15 15 15 15 15 15 15 15 15 15 14 14 14 14 14 13 12 12 11 11 11 11 12 13 13 12 11 11 10 10 9 9 9 9 9 10 11 11 12 14 15 17 20 25 30 35 38 39 41 42 41 39 39 40 42 43 44 45 44 44 44 43 43 44 44 45 45 45 45 45 45 44 44 45
14 14 14 14 15 15 15 15 15 15 15 15 15 15 15 15 15 15 15 16 16 16 17 16 15 15 16 16 15 14 13 12 12 12 12 13 13 13 12 12 11 10 10 10 9 9 9 10 10 11 12 13 15 18 21 26 31 35 38 38 40 42 43 42 41 42 43 44 45 45 45 44 44 43 43 44 44 45 45 45 45 45 45 45 45 45
13 13 13 13 14 14 14 15 15 15 16 15 15 16 16 16 16 16 17 16 16 16 15 15 15 16 17 17 17 17 16 15 14 13 13 13 13 13 13 13 12 11 10 10 10 9 9 9 10 11 12 13 15 18 21 26 31 35 38 39 41 43 45 45 45 44 45 46 46 46 45 44 44 43 43 44 45 45 45 45 46 46 46 47 47 47
12 12 12 13 13 13 14 14 14 15 15 15 16 16 16 16 16 17 17 17 17 16 16 16 17 17 16 15 16 16 16 16 15 14 13 13 13 13 14 14 13 12 11 11 11 10 10 10 10 11 12 14 17 19 21 25 29 34 38 41 43 44 47 49 49 48 48 48 47 47 46 45 44 43 44 44 45 46 46 46 46 47 47 48 48 48
11 12 12 12 12 12 12 13 14 14 15 15 16 16 16 16 16 16 17 17 17 17 17 17 17 17 16 16 15 15 16 16 16 15 14 13 13 13 14 14 14 13 12 13 12 11 11 11 11 12 14 16 18 20 23 25 28 33 37 41 44 46 48 51 52 52 51 50 50 49 47 46 44 44 44 45 46 47 47 47 48 48 49 49 49 49
12 12 12 12 12 12 12 13 14 14 14 15 16 16 17 16 16 16 17 17 17 18 18 18 18 18 18 18 17 16 16 16 16 17 16 15 14 13 14 14 14 14 13 12 11 11 12 11 12 13 15 17 18 21 23 26 28 32 35 40 43 46 47 51 53 55 54 53 52 51 49 47 46 45 45 46 47 48 48 49 49 50 50 51 51 51
12 11 11 12 12 12 11 12 13 14 14 14 15 16 17 16 16 17 17 18 18 18 19 18 18 19 19 19 18 18 16 16 16 16 16 16 16 16 14 14 13 13 13 12 11 11 11 11 13 14 16 18 19 20 22 26 29 32 34 39 42 45 47 51 54 56 57 56 55 53 51 49 47 46 46 46 46 47 49 50 50 51 52 52 52 52
13 12 12 12 12 12 12 13 13 13 12 13 14 15 16 16 17 17 18 18 18 18 18 18 18 19 20 19 18 18 17 15 15 15 17 16 16 17 16 15 13 12 12 12 11 11 11 12 13 15 17 19 20 21 22 26 29 33 36 39 42 44 46 50 54 57 57 57 56 55 53 51 50 48 47 46 46 47 48 50 51 53 54 54 54 54
16 15 15 14 14 13 13 13 13 12 12 12 13 15 16 16 16 17 17 18 18 18 18 19 19 20 19 19 18 18 17 16 15 15 16 16 16 16 16 15 14 13 12 12 11 11 11 12 13 15 16 19 22 23 24 27 30 33 35 37 39 41 44 49 53 56 57 57 57 56 55 53 52 50 49 47 47 47 48 50 52 54 55 56 56 56
21 20 19 18 18 17 16 14 14 13 14 13 13 14 16 16 16 17 17 18 18 18 19 20 20 20 19 19 18 18 17 16 15 15 15 16 16 16 16 16 15 15 14 13 12 12 11 12 13 14 15 18 21 24 25 26 29 31 33 34 35 37 40 46 52 56 58 58 57 57 56 55 53 52 51 50 48 48 48 50 52 55 57 58 58 58
26 25 24 23 22 21 19 18 17 16 15 15 14 14 15 16 16 17 17 18 18 18 19 20 20 20 19 19 19 19 18 17 16 15 15 16 17 17 17 17 17 17 16 15 14 13 12 12 13 14 16 18 20 23 25 26 28 30 31 32 33 35 37 44 51 56 59 59 59 58 57 57 56 55 53 52 51 49 49 50 51 54 57 59 60 60
29 29 28 28 27 26 24 22 20 19 17 16 15 14 14 15 16 17 17 17 18 18 19 20 20 21 20 19 19 18 18 17 16 16 16 17 18 18 18 18 18 18 17 17 16 16 14 13 13 13 16 19 21 23 25 26 27 28 29 30 31 34 37 43 50 56 59 60 60 60 60 59 59 58 57 55 53 52 50 50 51 53 56 58 59 60
Wind_Speed
22 21 22 23 22 22 21 20 20 20 20 20 20 20 19 19 19 20 20 19 19 18 16 15 13 13 12 12 12 12 12 12 12 12 11 11 11 12 12 12 13 13 13 14 14 14 14 15 15 15 16 16 17 17 18 18 18 18 18 19 19 19 19 19 19 20 20 20 20 20 20 20 19 19 18 17 17 17 17 18 19 21 22 23 24 25
17 18 19 20 20 20 20 20 19 19 19 19 19 19 19 19 19 19 19 19 18 16 15 14 13 12 12 12 12 12 12 12 12 12 13 13 13 13 13 13 13 14 14 15 15 16 16 16 16 16 17 17 17 18 18 18 18 18 18 18 19 19 19 19 19 20 20 20 20 21 20 20 20 19 19 18 18 18 18 18 19 19 20 20 21 21
16 16 18 19 19 20 20 19 19 18 18 18 18 19 19 19 19 19 18 17 16 15 14 13 12 12 12 12 12 12 12 12 13 13 14 15 15 15 16 16 16 16 16 17 17 18 18 18 18 18 19 19 19 19 19 19 19 19 19 19 19 19 19 19 20 20 20 21 21 21 21 20 20 20 20 19 19 19 19 19 19 19 19 19 19 18
16 17 18 18 18 19 19 18 18 18 18 18 18 19 19 19 19 18 17 16 15 14 13 13 12 12 12 12 12 13 13 13 14 15 15 16 17 17 18 18 18 19 19 19 20 20 20 19 20 20 20 20 20 20 20 19 19 19 19 19 19 19 19 19 20 20 20 20 21 21 21 20 20 20 20 20 20 20 19 20 20 20 19 19 18 18
17 17 18 18 18 18 18 18 18 18 18 18 18 19 19 18 18 17 16 15 14 14 13 13 13 13 13 13 13 14 14 15 15 16 17 17 18 19 19 20 20 21 21 21 21 21 21 20 20 20 20 20 20 20 19 19 19 19 19 19 18 18 18 19 19 19 19 20 20 20 20 20 20 20 20 19 19 19 19 19 19 19 19 19 18 18
18 18 18 18 18 18 18 18 18 18 18 18 19 19 18 18 17 16 15 15 14 14 13 14 14 13 14 14 14 15 15 16 17 17 18 19 19 20 20 21 21 21 22 22 22 21 21 20 20 19 19 19 19 18 18 18 18 18 17 17 17 17 17 17 18 18 18 18 19 19 19 19 19 19 19 18 18 18 18 19 19 19 18 18 18 18
19 18 18 18 18 19 19 19 19 19 19 19 19 19 18 17 17 16 15 14 14 14 14 14 14 14 14 15 15 16 17 17 18 19 19 20 20 21 21 21 21 21 21 21 20 20 20 19 19 18 18 18 17 17 17 17 16 16 16 16 15 15 16 16 16 17 17 17 18 18 18 18 18 17 17 17 17 17 17 17 17 18 17 18 17 17
19 18 18 18 18 19 20 20 20 20 19 19 19 18 18 17 16 15 14 14 14 14 14 15 15 15 15 16 16 17 18 19 19 20 20 20 20 20 20 20 19 19 19 19 19 18 18 17 17 17 17 16 16 16 16 16 16 15 15 15 15 15 15 16 16 16 17 17 17 17 17 17 17 17 17 17 16 16 17 17 17 17 17 17 17 17
18 18 19 19 20 20 20 20 20 20 19 18 18 18 17 16 16 15 15 14 14 14 15 15 15 16 16 17 17 18 19 19 19 19 19 19 19 18 18 18 18 17 17 17 17 17 16 16 16 16 16 16 16 16 15 15 15 15 14 14 14 14 15 15 16 16 16 16 16 16 16 16 16 16 16 16 16 16 16 16 16 16 16 16 16 16
19 19 20 20 21 21 20 20 20 19 18 18 17 17 16 16 16 15 15 15 15 15 15 16 16 17 17 18 18 18 19 19 19 18 18 18 17 17 17 16 16 16 16 16 16 16 16 15 15 15 15 15 15 15 15 15 14 14 14 14 14 14 14 14 15 15 15 15 15 15 15 15 15 15 15 15 15 15 15 15 15 16 16 16 16 16
20 21 21 22 22 22 21 20 19 19 18 17 17 17 17 16 16 15 15 15 16 16 16 16 16 17 17 17 18 18 18 18 18 17 17 17 16 16 16 16 16 16 16 15 15 15 15 15 15 15 15 15 14 14 14 14 13 13 13 13 13 13 13 13 13 14 14 14 14 13 13 13 13 13 14 14 14 14 14 15 15 15 15 15 15 15
21 22 22 23 23 22 21 20 19 19 18 17 16 16 16 16 16 15 15 16 16 16 16 16 17 17 16 16 16 17 17 17 16 16 16 16 16 16 15 15 15 15 15 15 14 14 14 14 14 14 14 14 14 14 13 13 12 12 12 12 12 12 12 12 12 12 12 12 12 12 12 12 12 12 12 12 13 13 13 14 14 14 14 15 15 15
22 22 22 23 22 22 20 19 18 18 17 17 16 16 16 15 15 15 15 16 16 16 16 16 16 16 16 16 16 16 16 16 16 16 16 16 16 15 15 15 15 14 14 14 13 13 13 13 14 14 14 13 13 13 12 12 12 11 11 11 11 11 11 11 11 11 11 11 11 11 11 11 12 12 12 12 12 12 13 13 13 13 13 14 14 15
22 22 21 21 20 20 19 18 17 17 16 16 15 15 15 15 15 16 16 16 17 17 16 16 16 16 15 15 16 16 16 16 16 16 16 16 15 15 14 14 14 14 13 13 12 12 12 13 13 13 13 13 13 12 12 11 11 11 11 11 11 11 11 11 11 11 11 11 11 11 11 11 11 11 11 11 12 12 12 12 12 12 12 12 13 14
20 20 19 18 18 17 17 16 15 15 15 15 14 14 15 16 16 17 17 17 16 16 16 15 15 15 15 16 16 16 16 16 16 16 16 16 15 15 14 14 14 14 13 13 12 12 12 13 13 13 13 13 12 12 12 11 11 11 11 11 11 11 11 11 10 10 10 10 10 10 10 10 11 11 11 11 11 11 11 11 11 11 11 11 12 12
18 17 16 16 15 15 15 14 14 14 15 15 15 15 16 16 17 17 17 16 16 15 15 14 14 15 15 16 16 15 15 16 16 16 16 16 15 14 14 14 14 14 13 13 12 12 12 13 13 13 13 12 12 12 11 11 11 11 11 11 11 11 11 10 10 10 10 10 10 10 10 10 10 10 10 10 10 11 11 11 11 11 11 11 11 11
15 14 14 13 14 14 14 14 14 14 15 15 16 16 16 17 17 17 16 15 15 15 14 14 14 14 15 15 15 15 15 16 16 17 16 16 15 14 14 14 14 14 13 13 13 12 12 12 13 13 12 12 12 11 11 11 11 11 11 11 11 10 10 10 10 10 10 9 9 9 9 9 9 9 10 10 10 10 10 10 10 10 10 10 10 10
14 13 13 13 13 14 14 14 15 15 15 15 16 16 16 16 16 16 15 15 14 14 14 14 15 15 15 15 14 14 15 15 16 17 16 15 14 14 14 14 14 14 13 13 13 12 12 12 12 12 12 12 12 11 11 11 11 11 11 11 10 10 10 10 10 10 9 9 9 9 9 9 9 9 9 9 9 9 9 9 9 9 9 9 10 10
13 13 13 13 14 14 14 15 15 15 15 15 15 15 15 15 15 15 14 14 13 13 13 14 14 15 15 14 14 13 14 15 16 16 16 14 13 13 14 13 13 13 13 13 13 12 12 12 12 12 12 12 11 11 11 11 11 11 11 10 10 10 10 10 10 9 9 9 9 9 9 9 9 9 9 9 9 9 9 9 9 9 9 9 9 9
13 14 14 14 14 14 14 14 14 14 14 14 14 14 14 14 14 13 13 13 13 13 13 13 14 14 14 14 14 13 13 14 15 15 15 13 13 13 13 13 13 13 13 13 12 12 12 12 12 12 12 12 11 11 11 11 11 11 11 10 10 10 10 10 10 9 9 9 9 9 9 9 9 9 9 9 9 8 8 9 9 9 9 9 9 9
14 14 14 14 14 13 13 13 13 13 13 13 13 13 13 13 12 12 12 12 12 12 13 13 13 13 13 14 14 14 13 13 14 14 14 13 12 12 13 13 13 13 13 13 12 12 12 12 12 12 12 11 11 11 11 11 11 11 10 10 10 10 10 10 10 10 10 10 9 9 9 9 9 9 9 9 9 9 9 9 9 9 9 9 9 9
14 14 14 14 13 13 12 12 12 12 13 13 13 12 12 12 11 11 11 11 11 12 12 12 13 13 13 14 14 13 12 12 13 13 13 12 11 11 12 12 12 12 12 12 12 12 12 12 12 12 11 10 10 10 11 11 11 11 10 10 10 10 10 10 10 10 10 10 10 10 10 9 9 9 9 9 9 9 9 9 9 9 9 9 9 9
14 14 14 13 13 12 12 12 12 12 12 12 12 12 12 11 11 11 11 11 11 12 12 12 12 12 12 13 13 13 12 12 12 12 12 12 11 11 11 11 11 12 12 12 12 12 12 13 12 11 10 10 10 11 11 11 11 11 11 10 10 10 10 10 10 10 10 10 10 10 10 10 10 10 10 10 9 9 9 9 9 9 10 9 9 9
14 13 13 13 12 12 12 12 12 12 12 12 12 12 12 11 11 11 11 11 11 11 12 12 11 11 11 12 12 12 12 11 11 11 11 11 11 11 11 11 11 11 12 12 12 12 13 13 12 11 10 10 10 11 11 11 11 11 11 11 11 11 11 10 10 10 10 10 10 10 10 10 10 10 10 10 10 10 10 10 10 10 10 10 10 10
12 12 12 12 11 11 11 11 11 11 11 11 11 11 11 11 11 11 11 10 10 10 10 10 10 10 10 10 11 11 11 10 10 10 11 11 10 10 10 11 11 11 12 12 12 13 13 13 12 11 10 10 11 11 12 11 11 11 11 11 11 11 11 11 11 11 11 11 11 11 11 11 11 11 11 11 11 10 10 10 10 10 11 11 11 11
11 11 11 10 10 10 10 10 10 10 10 10 11 10 10 10 10 10 10 9 9 9 9 9 9 9 9 10 10 10 10 10 10 10 10 10 10 10 10 10 11 12 12 12 13 13 13 13 12 11 10 11 11 12 12 12 12 12 12 12 11 11 11 11 11 11 11 12 12 12 12 12 12 12 12 11 11 11 11 11 11 11 11 11 11 11
10 10 10 10 10 10 10 10 10 10 10 10 10 10 10 10 10 10 9 9 9 9 9 9 9 9 9 9 10 10 10 10 9 10 10 10 10 10 10 10 11 12 12 12 13 13 13 13 13 11 11 11 12 12 12 12 12 12 12 12 12 12 12 12 12 12 12 12 12 13 13 12 12 12 12 12 12 12 12 12 12 12 12 12 12 12
10 9 9 9 9 9 9 9 9 9 9 10 10 9 9 9 10 10 10 9 9 9 9 9 9 9 9 9 10 10 10 10 10 10 10 11 11 11 10 11 12 12 12 12 13 13 13 13 13 12 12 12 12 13 13 12 12 13 13 13 12 12 12 12 12 13 13 13 13 13 13 13 13 12 12 12 12 12 12 12 12 13 13 13 13 12
9 9 8 8 8 8 8 8 8 9 9 9 9 9 9 9 10 10 9 9 9 9 9 8 8 8 9 9 9 10 10 11 10 10 10 12 12 12 11 11 12 12 12 12 12 13 13 13 13 13 13 13 13 13 13 13 13 13 13 13 13 13 13 13 13 13 14 13 13 13 13 13 12 12 12 12 12 12 12 12 13 13 13 13 13 13
8 8 8 8 8 8 8 8 8 8 9 9 9 9 9 9 9 9 9 8 8 9 8 8 8 8 8 9 9 10 10 11 10 10 10 12 13 13 12 12 12 11 11 11 12 13 13 13 13 13 13 13 13 14 14 14 14 14 14 14 14 14 14 14 14 14 14 14 13 13 13 12 12 12 12 12 12 12 12 12 13 13 13 13 13 13
8 7 7 7 7 8 8 8 8 9 9 9 9 9 8 8 9 9 9 8 8 8 8 8 8 8 8 9 9 9 10 10 10 10 10 11 13 13 12 12 12 11 11 11 12 12 12 12 13 13 13 13 14 14 14 14 14 14 15 15 15 15 15 14 14 14 14 14 13 13 13 12 12 12 11 11 12 12 12 12 13 13 13 13 13 13
8 8 7 8 8 8 8 8 8 8 9 9 8 8 8 8 9 9 8 8 8 8 8 8 8 8 8 8 9 9 9 9 10 10 10 11 12 13 13 12 12 12 12 12 13 12 10 11 12 12 12 13 13 14 14 15 15 15 16 16 16 16 15 15 14 14 14 13 13 13 12 12 12 11 11 11 11 12 12 12 13 13 13 13 13 13
8 8 8 8 8 8 8 8 8 8 9 9 8 8 8 8 8 8 8 8 8 8 8 8 8 8 8 8 8 9 9 10 10 10 10 11 13 13 13 13 13 13 12 13 13 14 13 13 13 12 12 13 13 14 14 15 16 16 16 16 16 16 16 15 14 13 13 13 13 13 12 12 12 11 11 11 11 12 12 12 13 13 13 13 13 13
8 8 8 8 8 8 8 8 9 9 9 9 9 8 8 8 8 8 8 8 8 8 8 8 8 8 8 8 8 8 9 10 11 11 11 11 12 13 13 13 14 14 13 13 14 15 16 16 15 14 14 14 14 14 14 15 16 17 17 17 17 16 16 15 14 13 13 13 13 13 13 12 12 12 11 11 11 12 12 12 12 13 13 13 13 13
8 8 8 8 8 8 9 9 9 9 9 9 9 9 8 8 8 8 8 8 8 8 8 8 9 9 9 9 9 9 9 11 12 11 11 11 12 13 13 14 14 14 14 14 15 15 15 16 16 15 15 15 14 14 15 15 16 17 17 17 17 17 16 15 14 13 13 13 13 13 13 13 12 12 12 12 12 12 12 12 12 13 13 13 13 13
8 9 9 9 9 9 9 9 9 9 9 9 9 9 9 8 8 8 8 9 9 9 9 9 9 9 9 10 9 9 10 12 12 12 12 12 12 13 14 14 14 14 14 15 15 15 16 16 16 16 16 15 15 14 14 15 16 16 17 17 17 17 17 15 14 13 13 13 13 13 13 13 13 12 12 12 12 12 12 12 12 12 13 13 13 13
9 9 9 9 9 9 9 9 9 9 9 9 9 9 9 9 9 9 9 10 10 10 10 11 10 10 10 10 10 10 11 12 13 13 13 12 13 13 14 14 14 14 14 15 15 16 16 17 17 16 16 15 15 14 14 14 14 15 16 16 17 17 17 16 15 14 14 14 14 14 14 14 13 13 13 12 12 12 12 12 12 12 13 13 13 13
10 10 10 9 9 9 9 9 9 9 9 9 9 9 9 9 10 10 10 11 11 11 11 12 12 12 11 11 11 11 12 12 13 13 13 13 13 14 14 15 15 14 14 15 16 16 17 17 17 17 16 15 15 15 14 13 13 13 14 16 17 17 17 16 15 14 14 14 14 15 14 14 14 14 13 13 13 12 12 12 12 12 12 12 13 13
10 10 10 9 9 9 9 9 9 9 9 9 9 10 10 10 10 11 11 11 11 12 12 12 12 12 12 12 12 12 12 13 13 14 14 14 14 14 15 15 15 15 15 15 16 17 17 18 18 18 17 16 16 15 14 13 13 13 14 15 16 17 18 17 16 15 15 15 15 15 15 15 14 14 14 13 13 12 12 12 12 12 12 12 12 12
10 10 10 10 9 9 9 9 9 9 9 10 10 10 10 10 11 11 11 11 12 12 12 12 12 13 13 13 13 12 13 13 14 14 15 15 15 15 15 16 16 16 16 16 17 17 18 18 19 19 18 17 16 15 14 13 13 13 14 14 14 16 18 18 17 16 16 15 15 15 15 15 15 14 14 14 13 13 12 12 12 12 12 12 12 12
10 10 10 10 9 9 9 10 10 10 10 10 10 11 11 11 12 12 12 12 12 12 12 12 13 13 13 13 13 13 13 14 14 15 15 16 16 16 16 16 16 17 17 17 18 18 18 19 19 19 19 18 17 16 15 14 13 12 13 13 14 15 16 17 17 17 16 16 16 16 16 16 16 15 14 14 13 13 13 13 13 13 13 13 12 12
10 10 10 10 10 10 10 10 10 10 11 11 11 11 12 12 12 12 13 13 13 13 13 13 14 14 14 14 13 13 13 14 14 15 15 16 16 17 17 17 17 18 18 18 19 19 19 19 19 19 19 19 18 18 17 15 14 13 12 13 13 14 16 17 18 17 16 16 16 17 16 16 16 16 15 14 14 14 14 14 14 14 14 13 13 13
10 10 11 10 10 10 10 10 10 11 11 11 11 12 12 12 12 13 13 13 13 13 13 14 14 15 15 14 14 13 14 14 14 15 15 16 16 17 18 18 18 19 19 19 19 20 19 19 20 20 19 19 19 19 19 17 15 13 12 12 12 13 14 16 17 17 17 17 17 17 17 17 17 16 15 15 14 14 15 15 15 15 15 14 14 14
10 10 11 11 10 10 10 11 11 11 11 11 12 12 12 13 13 13 13 13 13 13 14 14 14 15 15 14 14 13 14 14 15 15 15 16 16 17 18 18 19 19 19 20 20 20 20 20 20 20 19 20 20 21 20 18 16 14 12 11 12 13 14 15 16 17 17 17 18 18 18 18 17 17 16 15 15 16 16 16 16 16 16 16 16 15
10 11 11 11 10 10 10 11 11 11 11 11 11 12 13 13 13 13 13 13 14 14 14 15 15 15 15 14 14 14 14 14 15 15 15 16 16 17 18 18 19 20 20 20 20 20 20 21 21 20 20 20 21 21 21 19 17 15 13 12 12 13 14 15 16 17 17 18 18 19 19 19 18 17 17 17 16 17 17 17 17 17 17 17 17 17
11 11 11 11 10 10 10 11 11 11 11 11 11 12 13 13 13 13 13 14 14 14 14 14 14 14 15 14 14 14 14 14 15 15 15 16 16 17 18 18 19 20 20 20 20 20 20 21 21 21 21 21 21 21 21 20 18 16 14 13 13 13 14 15 16 17 18 18 19 20 20 20 19 19 18 18 18 18 18 18 18 18 18 19 18 18
11 11 11 11 10 10 10 11 11 11 11 11 12 12 13 14 14 14 14 14 14 14 14 14 14 14 14 14 14 14 14 14 14 15 15 16 16 17 18 19 19 19 20 20 20 20 20 20 20 21 21 21 22 22 21 19 18 17 16 14 14 14 14 14 15 16 18 18 19 20 21 21 20 20 20 19 19 19 19 19 19 19 20 20 20 20
11 11 11 10 10 10 11 11 11 12 12 12 13 13 14 14 14 14 14 14 14 14 14 14 14 14 14 14 14 14 14 14 14 15 15 15 16 17 18 19 20 20 20 20 20 20 20 20 21 21 21 21 22 21 21 19 18 17 17 16 16 15 15 14 14 16 17 18 19 20 21 21 21 22 21 21 20 20 20 20 20 21 21 21 21 21
11 11 11 11 11 11 11 11 12 12 12 13 13 13 14 15 15 14 14 14 14 14 14 14 15 15 15 15 15 15 15 15 15 15 15 15 16 17 18 19 20 20 20 20 20 20 20 21 21 21 21 21 21 21 20 20 19 18 18 18 17 17 16 14 14 15 16 18 19 20 21 21 22 22 22 22 22 21 21 21 21 21 22 22 23 23
11 11 11 11 11 11 11 11 12 12 12 13 13 14 14 15 15 15 15 15 15 15 15 15 15 15 16 15 15 15 15 15 15 15 15 15 16 16 18 19 20 20 20 20 20 20 20 20 21 20 20 20 20 20 20 20 19 19 19 19 18 17 16 15 15 15 16 17 18 19 20 21 22 22 22 23 23 23 22 22 22 22 22 23 24 24
12 12 12 11 11 11 11 11 11 12 12 13 13 14 15 15 16 16 15 15 15 15 16 16 16 16 16 16 16 16 16 16 16 16 15 15 16 16 17 18 19 19 19 19 20 20 21 21 21 20 19 19 18 18 18 19 19 19 19 18 18 17 16 15 15 16 16 17 18 19 20 20 21 22 22 23 23 24 24 23 23 23 23 24 25 25
Wind_Direction
254 250 246 245 245 246 248 251 254 256 258 261 263 266 269 272 275 277 279 279 278 276 271 265 259 254 250 248 246 245 244 244 243 244 244 244 245 246 247 248 250 251 253 255 256 257 257 257 257 257 256 257 257 257 258 259 260 260 261 261 261 262 263 265 266 268 270 271 271 272 273 274 274 274 274 272 270 268 265 262 259 257 256 256 257 258
246 244 243 243 244 246 248 251 253 255 257 261 264 267 270 273 275 277 278 276 273 268 263 258 253 250 247 246 246 245 245 245 245 246 247 248 249 250 250 251 252 254 255 257 258 259 260 260 260 260 260 259 259 259 260 260 261 261 262 262 263 264 264 266 267 269 270 272 272 273 274 274 275 275 274 272 271 269 267 266 264 262 261 260 260 260
247 247 247 247 247 247 248 251 254 257 260 263 266 269 271 273 274 275 274 271 267 261 256 252 249 247 246 246 246 247 247 248 249 251 252 254 255 256 256 257 258 259 260 261 262 263 263 264 264 264 264 264 263 263 264 264 264 264 264 265 265 266 267 268 269 269 270 271 272 273 273 274 274 273 272 271 270 269 268 267 267 266 266 266 265 265
257 256 254 254 253 252 253 254 257 259 262 265 267 269 270 271 272 271 269 265 259 254 250 248 246 246 246 246 248 249 250 251 253 255 256 258 259 260 261 262 263 264 265 265 266 266 266 267 267 267 266 267 266 267 267 267 267 267 267 267 268 268 269 269 270 270 270 270 271 272 272 272 272 272 271 270 269 268 267 267 267 267 267 267 267 266
262 260 259 258 257 257 258 258 259 261 264 265 266 267 269 269 268 267 263 259 253 249 247 246 246 246 247 248 250 252 254 255 257 258 260 261 263 264 265 266 267 267 268 268 269 268 268 268 267 267 267 267 268 268 268 268 268 268 268 269 269 270 270 270 270 270 270 270 270 271 271 271 271 270 270 269 268 267 266 265 265 265 266 265 265 264
262 260 260 259 258 258 259 260 261 263 264 265 265 266 266 266 264 262 258 254 249 246 245 246 248 249 251 252 255 257 258 260 262 263 264 266 267 268 268 269 270 270 270 270 270 270 269 268 267 267 267 267 267 267 268 268 268 268 269 270 270 270 270 270 269 269 269 269 269 270 270 270 270 270 269 269 268 266 265 264 264 264 263 263 262 262
262 261 260 259 259 259 260 261 263 263 263 264 264 265 264 263 261 258 254 251 249 247 247 248 250 253 255 257 259 261 263 265 266 267 268 269 269 270 270 270 271 271 271 270 270 270 269 269 268 268 267 267 268 268 268 269 269 270 271 272 271 271 270 270 269 269 269 269 270 270 270 270 270 270 269 268 267 266 265 264 263 262 262 261 260 260
263 262 261 259 259 260 261 262 263 263 263 262 263 263 262 260 257 254 252 250 249 248 249 251 253 255 258 261 263 265 267 268 269 269 269 269 269 269 269 270 270 269 269 269 269 269 270 270 270 270 270 270 270 271 271 272 273 274 274 274 273 272 271 270 270 270 270 270 271 271 271 271 270 270 269 268 267 266 265 264 263 262 261 259 259 258
263 262 261 260 260 260 260 261 262 262 261 260 260 259 258 257 254 252 250 248 248 250 252 254 257 259 262 264 266 267 268 269 269 269 269 268 268 268 268 268 268 268 268 269 269 269 270 270 271 271 272 272 273 274 275 276 277 278 278 277 275 273 272 272 272 272 272 272 272 272 272 271 271 270 269 268 267 266 265 264 263 261 260 259 258 257
261 261 261 260 260 260 260 260 260 260 259 257 257 256 256 254 253 252 251 250 251 253 255 257 260 263 265 266 267 268 268 269 268 267 267 266 266 266 267 267 268 268 268 269 270 270 270 271 271 272 272 273 274 276 277 278 279 279 279 278 276 275 274 273 273 273 273 274 274 273 273 272 272 271 270 269 268 266 265 263 262 261 260 259 258 257
259 259 258 258 259 260 259 259 258 257 256 254 254 254 254 253 252 252 253 254 256 258 260 262 264 265 267 267 268 268 267 267 267 266 266 265 265 266 266 267 267 267 268 269 269 270 270 271 271 272 273 274 275 276 277 278 279 279 278 277 276 275 274 273 274 274 275 275 275 275 274 274 273 272 271 270 268 267 265 263 262 261 260 259 258 258
257 257 257 257 258 258 257 256 255 254 252 251 251 251 252 253 254 254 256 258 260 262 264 266 267 268 267 266 266 267 266 265 265 265 265 265 265 266 266 266 266 266 267 268 268 269 270 270 271 272 273 274 276 277 278 279 279 278 277 276 275 274 274 274 274 275 276 276 276 276 276 276 275 274 273 271 270 268 266 265 263 262 260 259 258 257
256 256 256 256 257 256 255 252 250 249 249 250 251 252 254 256 258 259 260 262 264 266 267 268 268 268 268 266 265 264 265 264 264 264 265 265 266 267 266 266 266 266 267 267 268 269 269 270 271 272 274 275 276 277 278 279 279 278 277 276 276 275 275 275 276 276 276 277 277 277 277 277 276 275 274 273 272 270 269 268 267 265 263 260 258 257
255 255 254 254 253 253 252 250 247 247 249 252 254 256 258 260 261 262 263 265 267 268 268 267 267 266 267 266 265 264 265 265 266 266 267 268 269 269 269 269 269 268 268 268 268 268 269 269 271 272 274 275 276 277 278 278 278 278 277 277 277 277 277 277 277 277 277 277 277 277 277 277 277 276 275 275 274 274 273 272 271 269 266 263 260 258
254 253 252 252 251 251 249 248 248 249 252 254 255 256 257 259 261 263 265 266 267 268 267 266 265 265 265 265 266 267 267 268 269 270 272 272 272 272 272 272 271 271 270 270 269 269 268 269 271 272 274 275 276 277 277 278 278 278 278 278 279 279 279 279 278 278 277 277 277 277 277 277 277 277 277 277 277 276 276 276 274 272 270 267 264 261
251 250 249 249 249 249 249 248 248 249 251 253 254 255 256 258 261 263 265 264 265 264 263 262 262 263 264 266 268 270 270 272 273 274 274 275 275 274 274 273 272 272 271 271 270 270 269 270 271 273 275 276 276 277 277 278 278 278 279 280 280 280 280 280 279 278 278 278 278 278 277 277 277 278 278 278 278 278 278 278 277 275 273 271 269 266
247 246 246 246 246 248 249 249 249 250 252 253 254 256 257 259 261 262 262 261 260 259 259 259 260 261 262 263 266 269 271 272 273 274 274 275 275 274 273 272 271 271 271 271 271 270 271 271 272 274 275 275 276 277 277 278 278 279 279 280 280 280 280 280 280 280 279 280 280 279 279 279 278 278 278 278 278 279 278 278 278 277 276 274 273 271
244 244 245 245 246 248 250 251 252 253 254 255 255 257 258 258 258 257 256 255 255 255 257 259 260 262 264 266 266 266 268 269 270 271 272 273 273 273 271 270 270 270 271 270 270 271 271 272 273 274 274 275 275 277 277 278 278 278 278 278 279 279 279 279 279 279 280 280 280 281 280 280 279 278 278 278 278 278 278 278 278 278 277 277 276 276
246 247 248 248 249 251 252 253 254 255 256 256 256 255 254 253 252 251 250 251 251 253 256 260 262 265 267 268 268 266 265 266 268 270 271 271 271 271 270 269 270 270 270 270 270 271 272 272 272 272 273 274 275 276 276 277 277 276 277 276 276 276 276 276 277 278 279 280 280 281 280 280 279 278 278 277 277 277 277 277 277 277 277 277 278 278
249 251 251 251 252 252 252 253 254 255 254 252 251 249 247 246 245 245 245 248 250 253 257 260 263 266 268 268 268 267 266 266 267 269 270 271 269 268 268 269 269 269 270 270 270 271 271 271 271 272 273 274 275 275 275 275 274 274 274 273 273 272 273 273 275 276 277 278 279 280 280 280 279 279 278 278 278 277 277 277 276 276 276 276 278 279
250 251 252 251 250 249 249 249 249 248 246 245 243 242 240 240 240 241 243 247 250 254 258 260 262 265 267 267 267 267 267 266 267 268 269 269 268 266 267 268 268 269 269 269 270 270 270 271 271 272 273 275 275 274 273 272 271 271 270 270 270 270 270 271 272 273 275 276 277 278 279 279 279 279 279 279 278 278 277 277 278 279 280 280 281 280
249 249 248 248 246 245 243 242 241 240 239 238 237 237 237 237 238 240 243 246 249 253 256 258 260 263 265 266 267 267 266 265 266 267 268 268 265 264 266 267 267 268 268 269 270 270 270 270 271 272 274 274 274 272 270 269 268 267 267 266 266 267 267 268 270 271 272 274 275 276 277 277 278 278 279 279 279 278 278 278 278 280 282 283 284 283
246 245 245 244 243 241 238 236 235 235 235 235 234 236 238 239 240 242 245 247 250 252 255 258 260 261 262 263 264 265 265 265 265 266 267 265 262 261 264 265 266 266 267 269 270 271 271 271 271 272 273 273 271 269 267 265 264 264 263 263 264 264 265 266 268 269 271 272 273 274 275 275 276 276 277 277 278 278 278 278 278 278 279 280 281 281
244 243 242 241 240 238 235 234 233 234 234 235 235 237 239 240 242 244 246 248 250 252 253 254 256 257 258 260 261 262 264 264 264 264 265 263 260 259 260 262 262 263 265 267 268 269 270 271 271 272 272 270 267 265 263 262 261 261 260 260 261 261 262 264 265 267 269 270 271 272 273 273 274 274 275 276 276 277 277 277 277 277 277 278 278 278
242 241 240 239 237 236 234 233 233 234 236 237 238 239 241 243 244 245 246 248 249 249 250 252 255 256 257 258 259 260 263 264 264 263 263 263 259 256 257 259 260 261 262 264 265 267 268 269 270 270 269 265 263 262 261 260 258 258 257 257 258 259 260 262 263 266 267 269 270 271 272 272 272 273 274 275 275 276 276 276 277 277 276 276 276 276
238 237 236 236 235 234 233 233 234 235 237 239 241 242 243 244 245 245 246 248 249 250 252 254 256 257 257 258 259 260 262 263 263 263 264 264 260 256 255 256 258 259 260 261 262 263 264 266 268 268 265 262 260 259 258 257 256 255 254 254 255 256 258 260 263 265 267 269 270 271 272 272 272 272 273 274 274 275 275 276 276 276 276 275 275 275
233 233 232 232 232 233 233 233 234 236 239 241 243 243 244 245 245 247 249 251 252 253 255 256 256 257 256 258 260 262 263 263 263 263 265 265 263 260 257 255 257 258 258 258 258 260 261 263 264 265 262 260 258 257 256 255 253 253 252 252 253 255 257 260 263 266 268 270 271 271 271 272 272 272 272 272 273 274 274 275 275 275 275 275 275 275
230 229 229 230 230 231 232 233 234 236 238 241 243 244 244 244 247 249 251 252 252 253 254 255 256 255 255 257 260 263 264 264 264 264 265 267 267 265 262 258 257 257 258 256 255 256 258 259 261 261 260 258 256 255 254 252 251 250 251 251 253 255 258 261 264 267 269 270 271 271 271 271 271 270 271 271 271 272 273 274 274 274 274 275 275 276
227 227 226 227 228 229 230 231 233 234 236 239 241 242 243 244 246 249 250 249 250 251 252 252 253 254 255 256 258 260 262 263 265 267 267 268 269 268 265 261 259 258 257 255 253 254 255 257 257 258 257 256 254 252 250 249 248 249 250 252 254 257 260 263 266 267 268 269 269 269 269 269 268 268 269 269 270 271 272 273 273 274 274 274 275 276
222 221 221 222 224 225 226 227 229 231 232 235 236 237 238 240 243 245 245 245 246 247 249 250 252 254 255 256 257 258 259 262 265 267 268 268 268 267 266 263 261 258 256 254 253 253 254 254 254 253 252 252 250 248 246 246 247 249 251 254 256 259 261 263 265 266 266 266 266 266 266 266 266 267 267 268 269 270 272 272 273 274 274 275 276 276
216 216 215 216 218 220 222 223 225 228 230 232 232 230 229 231 235 239 241 242 243 245 248 250 253 255 258 259 260 259 259 262 265 266 266 267 267 267 266 264 261 258 254 252 253 255 256 254 252 250 248 247 245 244 244 244 246 249 253 255 258 260 262 262 263 263 264 264 264 263 264 264 265 265 266 268 269 270 271 272 273 274 275 276 277 276
215 213 213 214 215 217 220 222 224 226 229 231 231 227 223 224 227 232 236 239 242 245 248 252 255 258 260 264 265 265 264 264 264 263 263 264 265 266 266 265 263 259 255 251 252 254 254 252 251 248 244 242 241 241 242 244 248 251 255 258 260 261 262 262 261 261 261 261 261 261 262 262 263 264 265 267 268 269 271 272 274 275 277 277 278 278
214 214 214 214 215 217 220 221 224 227 230 233 234 232 228 225 226 230 235 239 243 248 253 258 261 263 265 267 268 269 268 266 265 264 263 264 264 266 266 266 264 262 259 254 252 252 252 251 251 248 244 241 240 240 243 246 250 254 257 260 262 263 263 261 260 259 258 259 259 260 261 262 263 264 265 266 267 269 270 272 273 275 277 278 279 279
215 215 215 215 216 218 220 222 225 228 231 235 238 240 240 238 237 239 242 246 250 255 260 264 268 270 270 270 270 269 267 266 266 266 265 265 265 267 268 267 266 265 263 259 256 254 253 253 252 249 246 244 242 242 244 248 252 256 259 261 263 264 264 262 260 259 258 258 259 260 261 262 263 264 265 266 267 268 269 271 273 275 276 278 280 281
218 218 218 218 218 219 221 223 226 229 233 236 240 244 247 250 252 254 257 260 263 266 268 269 271 272 273 273 271 267 263 266 269 271 270 269 269 270 270 268 268 267 266 263 261 258 257 255 253 251 248 245 244 244 245 248 252 256 260 262 263 264 264 263 261 259 258 258 259 260 262 263 264 265 265 266 266 267 268 269 271 273 275 277 279 280
221 222 222 222 222 223 224 226 228 230 234 238 243 247 252 256 259 263 266 269 271 273 273 273 273 272 272 273 271 268 265 268 272 274 274 273 272 272 272 270 270 269 267 266 264 262 261 259 256 254 252 248 244 241 243 246 250 254 258 261 263 264 264 263 261 259 258 259 259 261 262 263 264 265 266 266 266 266 267 268 269 271 272 275 276 278
222 223 224 224 226 227 228 229 231 233 236 240 245 249 253 256 259 262 265 267 269 271 273 273 273 273 272 272 271 270 269 270 273 275 275 274 273 272 272 272 271 269 267 267 266 265 264 262 260 258 256 253 248 243 241 242 245 250 255 259 262 263 264 263 261 259 258 258 259 260 262 263 264 265 265 265 265 266 266 267 267 268 269 271 273 276
223 224 225 227 228 230 231 233 235 237 240 243 246 249 251 253 255 257 260 262 265 267 269 271 273 273 273 273 272 271 271 271 273 274 275 274 273 272 272 272 271 269 267 266 265 265 265 264 264 263 259 256 252 248 245 242 242 245 249 255 259 262 263 263 261 259 257 257 258 259 260 261 262 263 264 264 264 265 265 265 265 266 267 268 271 273
226 227 229 230 232 234 236 237 239 242 245 247 248 250 251 253 255 256 258 261 263 265 268 270 272 274 275 275 274 273 273 273 274 275 275 275 274 273 272 272 271 270 267 265 264 263 264 264 264 264 263 260 257 252 248 245 244 244 246 251 257 261 263 263 261 259 257 256 257 258 259 259 260 261 262 263 263 264 264 264 264 265 265 266 268 270
229 232 234 236 237 239 240 242 245 247 249 250 252 253 255 256 258 260 262 264 266 268 269 272 273 275 276 276 276 275 274 273 274 275 275 275 275 274 273 272 272 270 268 266 264 263 263 263 264 264 264 263 261 256 251 248 246 246 247 249 254 259 262 263 261 259 257 256 256 257 258 258 259 259 260 261 262 263 263 263 264 265 266 267 268 270
233 236 238 241 242 244 245 248 250 251 253 254 256 257 257 258 259 261 263 266 267 269 272 273 273 274 275 275 274 273 272 271 271 272 273 274 275 275 274 273 272 271 270 268 266 264 263 263 264 264 264 264 262 258 253 250 248 249 250 250 252 254 259 261 261 259 257 256 255 256 257 258 259 259 260 261 261 261 262 262 263 265 267 269 269 270
237 240 242 244 245 246 247 250 252 253 255 256 256 257 258 259 260 262 263 265 266 267 269 270 270 271 270 271 271 270 269 268 268 269 270 271 272 273 273 273 273 272 271 270 268 267 265 264 264 264 265 265 264 262 258 254 251 252 253 254 253 253 255 258 259 258 256 256 256 256 257 258 259 259 260 260 260 260 261 261 263 264 267 269 271 272
240 243 245 247 247 248 249 250 251 252 253 255 256 257 258 259 260 261 263 264 265 266 266 267 267 268 268 268 267 267 266 265 266 266 267 268 269 271 272 272 272 272 272 271 270 269 268 266 265 265 265 265 265 264 262 258 256 255 256 256 255 254 252 255 257 257 256 255 255 256 257 257 258 258 259 258 258 258 259 260 262 263 265 267 269 271
243 246 248 249 250 250 250 249 249 250 251 253 253 255 256 257 257 258 260 260 261 262 262 263 264 266 267 266 266 265 265 265 265 265 265 266 267 269 270 270 271 272 272 271 271 270 270 268 267 266 265 265 265 264 264 262 261 260 260 258 257 254 251 251 253 255 256 255 256 256 256 257 257 258 257 257 256 257 258 259 260 262 263 265 267 269
246 249 251 252 252 252 251 250 250 251 251 252 253 253 254 255 256 256 257 257 258 258 259 259 261 263 265 265 265 264 264 265 266 265 265 266 267 268 269 269 270 271 271 271 271 271 270 270 269 267 266 264 264 264 265 265 265 265 264 263 261 257 254 252 252 253 253 254 255 256 257 257 257 258 257 256 255 256 257 258 260 261 262 264 265 266
247 249 251 253 255 255 255 256 257 257 256 256 256 256 256 256 257 257 257 258 258 258 258 260 261 263 265 266 265 264 264 264 266 267 267 267 268 268 269 269 269 270 271 271 272 271 270 270 269 268 267 265 264 264 265 267 268 268 268 267 265 262 258 254 252 250 250 252 253 255 257 258 259 258 258 257 255 255 256 258 259 260 262 263 264 266
245 248 251 254 257 259 261 263 264 264 263 262 262 261 261 261 261 261 261 261 261 261 262 263 264 265 266 267 267 266 264 264 264 265 266 267 268 269 269 270 270 270 270 271 271 271 271 270 269 268 267 266 266 266 266 267 269 271 271 270 268 265 262 258 253 250 249 249 250 253 256 258 259 259 259 259 257 256 256 256 257 259 260 262 263 265
245 248 251 255 259 261 264 266 268 268 268 268 268 268 268 267 267 267 267 267 266 266 267 268 268 269 269 269 269 268 268 265 264 263 263 263 265 268 269 270 271 271 271 271 271 271 271 270 269 268 268 268 268 268 269 270 271 272 273 272 270 268 266 261 256 252 250 249 249 251 254 256 257 258 260 260 260 259 257 256 256 257 258 260 262 264
247 249 252 255 258 260 263 265 267 269 270 271 271 272 273 273 273 273 272 272 272 271 271 272 272 273 273 272 272 271 270 268 266 265 263 260 260 262 266 269 271 272 273 273 273 272 272 271 270 269 269 269 270 271 272 273 274 274 273 272 271 270 268 264 258 254 251 249 249 251 252 254 256 258 260 261 261 261 259 257 255 255 257 258 260 262
248 250 252 254 256 258 261 264 266 269 271 272 273 274 275 276 277 277 277 276 275 274 274 273 274 274 274 274 273 272 271 270 268 266 263 260 258 258 260 264 267 270 273 275 275 275 275 274 273 271 271 271 272 273 274 275 275 274 273 272 272 271 270 265 259 255 252 251 250 251 253 254 256 258 260 261 263 264 263 261 258 256 256 257 259 261
249 250 252 254 257 259 262 264 267 270 272 273 274 275 275 276 277 278 278 276 275 274 274 273 273 273 274 274 274 273 272 271 268 266 264 262 259 257 259 261 264 267 270 272 274 275 276 276 275 274 273 273 274 274 275 275 275 275 274 273 272 271 269 264 259 255 253 252 252 253 254 255 257 259 260 262 264 266 267 266 263 260 258 258 259 261